29.03.2024;05:00;12,55
29.03.2024;04:45;12,55
29.03.2024;04:30;12,55
29.03.2024;04:15;12,55
29.03.2024;04:00;12,55
29.03.2024;03:45;12,55
29.03.2024;03:30;12,55
29.03.2024;03:15;12,55
29.03.2024;03:00;12,55
29.03.2024;02:45;12,55
29.03.2024;02:30;12,64
29.03.2024;02:15;12,55
29.03.2024;02:00;12,55
29.03.2024;01:45;12,55
29.03.2024;01:30;12,55
29.03.2024;01:15;12,55
29.03.2024;01:00;12,58
29.03.2024;00:45;12,58
29.03.2024;00:30;12,58
29.03.2024;00:15;12,58
29.03.2024;00:00;12,61
28.03.2024;23:45;12,61
28.03.2024;23:30;12,64
28.03.2024;23:15;12,67
28.03.2024;23:00;12,67
28.03.2024;22:45;12,74
28.03.2024;22:30;12,74
28.03.2024;22:15;12,77
28.03.2024;22:00;12,83
28.03.2024;21:45;12,86
28.03.2024;21:30;12,92
28.03.2024;21:15;12,95
28.03.2024;21:00;13,05
28.03.2024;20:45;13,08
28.03.2024;20:30;13,11
28.03.2024;20:15;13,17
28.03.2024;20:00;13,27
28.03.2024;19:45;13,33
28.03.2024;19:30;13,42
28.03.2024;19:15;13,48
28.03.2024;19:00;13,61
28.03.2024;18:45;13,73
28.03.2024;18:30;13,83
28.03.2024;18:15;13,92
28.03.2024;18:00;14,01
28.03.2024;17:45;14,01
28.03.2024;17:30;14,01
28.03.2024;17:15;14,01
28.03.2024;17:00;14,08
28.03.2024;16:45;14,04
28.03.2024;16:30;14,08
28.03.2024;16:15;14,04
28.03.2024;16:00;14,04
28.03.2024;15:45;14,04
28.03.2024;15:30;14,04
28.03.2024;15:15;14,08
28.03.2024;15:00;14,04
28.03.2024;14:45;14,08
28.03.2024;14:30;14,08
28.03.2024;14:15;14,08
28.03.2024;14:00;14,08
28.03.2024;13:45;14,08
28.03.2024;13:30;14,08
28.03.2024;13:15;14,08
28.03.2024;13:00;14,08
28.03.2024;12:45;14,14
28.03.2024;12:30;14,26
28.03.2024;12:15;14,70
28.03.2024;12:00;14,73
28.03.2024;11:45;14,73
28.03.2024;11:30;14,73
28.03.2024;11:15;14,64
28.03.2024;11:00;14,57
28.03.2024;10:45;14,57
28.03.2024;10:30;14,70
28.03.2024;10:15;14,51
28.03.2024;10:00;14,20
28.03.2024;09:45;14,29
28.03.2024;09:30;14,14
28.03.2024;09:15;14,17
28.03.2024;09:00;14,01
28.03.2024;08:45;13,76
28.03.2024;08:30;13,52
28.03.2024;08:15;13,27
28.03.2024;08:00;13,05
28.03.2024;07:45;12,86
28.03.2024;07:30;12,71
28.03.2024;07:15;12,61
28.03.2024;07:00;12,55
28.03.2024;06:45;12,52
28.03.2024;06:30;12,49
28.03.2024;06:15;12,49
28.03.2024;06:00;12,49
28.03.2024;05:45;12,49
28.03.2024;05:30;12,49
28.03.2024;05:15;12,49
28.03.2024;05:00;12,52
28.03.2024;04:45;12,52
28.03.2024;04:30;12,52
28.03.2024;04:15;12,52
28.03.2024;04:00;12,55
28.03.2024;03:45;12,55
28.03.2024;03:30;12,55
28.03.2024;03:15;12,55
28.03.2024;03:00;12,55
28.03.2024;02:45;12,55
28.03.2024;02:30;12,55
28.03.2024;02:15;12,55
28.03.2024;02:00;12,55
28.03.2024;01:45;12,55
28.03.2024;01:30;12,55
28.03.2024;01:15;12,55
28.03.2024;01:00;12,58
28.03.2024;00:45;12,58
28.03.2024;00:30;12,58
28.03.2024;00:15;12,58
28.03.2024;00:00;12,58
27.03.2024;23:45;12,61
27.03.2024;23:30;12,61
27.03.2024;23:15;12,61
27.03.2024;23:00;12,67
27.03.2024;22:45;12,67
27.03.2024;22:30;12,71
27.03.2024;22:15;12,74
27.03.2024;22:00;12,80
27.03.2024;21:45;12,83
27.03.2024;21:30;12,86
27.03.2024;21:15;12,92
27.03.2024;21:00;12,99
27.03.2024;20:45;13,05
27.03.2024;20:30;13,08
27.03.2024;20:15;13,11
27.03.2024;20:00;13,20
27.03.2024;19:45;13,27
27.03.2024;19:30;13,33
27.03.2024;19:15;13,39
27.03.2024;19:00;13,48
27.03.2024;18:45;13,58
27.03.2024;18:30;13,67
27.03.2024;18:15;13,80
27.03.2024;18:00;13,95
27.03.2024;17:45;14,01
27.03.2024;17:30;14,11
27.03.2024;17:15;14,14
27.03.2024;17:00;14,14
27.03.2024;16:45;14,17
27.03.2024;16:30;14,14
27.03.2024;16:15;14,14
27.03.2024;16:00;14,14
27.03.2024;15:45;14,14
27.03.2024;15:30;14,14
27.03.2024;15:15;14,14
27.03.2024;15:00;14,14
27.03.2024;14:45;14,14
27.03.2024;14:30;14,14
27.03.2024;14:15;14,14
27.03.2024;14:00;14,14
27.03.2024;13:45;14,14
27.03.2024;13:30;14,14
27.03.2024;13:15;14,17
27.03.2024;13:00;14,14
27.03.2024;12:45;14,17
27.03.2024;12:30;14,14
27.03.2024;12:15;14,76
27.03.2024;12:00;14,73
27.03.2024;11:45;14,73
27.03.2024;11:30;14,76
27.03.2024;11:15;14,73
27.03.2024;11:00;14,76
27.03.2024;10:45;14,73
27.03.2024;10:30;14,82
27.03.2024;10:15;14,76
27.03.2024;10:00;14,20
27.03.2024;09:45;14,20
27.03.2024;09:30;14,20
27.03.2024;09:15;14,20
27.03.2024;09:00;14,23
27.03.2024;08:45;14,23
27.03.2024;08:30;14,23
27.03.2024;08:15;14,17
27.03.2024;08:00;13,83
27.03.2024;07:45;13,33
27.03.2024;07:30;12,92
27.03.2024;07:15;12,74
27.03.2024;07:00;12,64
27.03.2024;06:45;12,55
27.03.2024;06:30;12,49
27.03.2024;06:15;12,49
27.03.2024;06:00;12,49
27.03.2024;05:45;12,49
27.03.2024;05:30;12,49
27.03.2024;05:15;12,49
27.03.2024;05:00;12,52
27.03.2024;04:45;12,52
27.03.2024;04:30;12,52
27.03.2024;04:15;12,52
27.03.2024;04:00;12,64
27.03.2024;03:45;12,55
27.03.2024;03:30;12,55
27.03.2024;03:15;12,55
27.03.2024;03:00;12,55
27.03.2024;02:45;12,55
27.03.2024;02:30;12,55
27.03.2024;02:15;12,55
27.03.2024;02:00;12,55
27.03.2024;01:45;12,55
27.03.2024;01:30;12,55
27.03.2024;01:15;12,55
27.03.2024;01:00;12,58
27.03.2024;00:45;12,58
27.03.2024;00:30;12,58
27.03.2024;00:15;12,58
27.03.2024;00:00;12,61
26.03.2024;23:45;12,61
26.03.2024;23:30;12,64
26.03.2024;23:15;12,67
26.03.2024;23:00;12,71
26.03.2024;22:45;12,74
26.03.2024;22:30;12,77
26.03.2024;22:15;12,80
26.03.2024;22:00;12,86
26.03.2024;21:45;12,89
26.03.2024;21:30;12,92
26.03.2024;21:15;12,95
26.03.2024;21:00;13,05
26.03.2024;20:45;13,11
26.03.2024;20:30;13,14
26.03.2024;20:15;13,20
26.03.2024;20:00;13,30
26.03.2024;19:45;13,33
26.03.2024;19:30;13,42
26.03.2024;19:15;13,48
26.03.2024;19:00;13,61
26.03.2024;18:45;13,73
26.03.2024;18:30;13,83
26.03.2024;18:15;13,92
26.03.2024;18:00;14,01
26.03.2024;17:45;14,08
26.03.2024;17:30;14,14
26.03.2024;17:15;14,11
26.03.2024;17:00;14,14
26.03.2024;16:45;14,11
26.03.2024;16:30;14,14
26.03.2024;16:15;14,14
26.03.2024;16:00;14,14
26.03.2024;15:45;14,14
26.03.2024;15:30;14,14
26.03.2024;15:15;14,14
26.03.2024;15:00;14,14
26.03.2024;14:45;14,14
26.03.2024;14:30;14,14
26.03.2024;14:15;14,14
26.03.2024;14:00;14,17
26.03.2024;13:45;14,17
26.03.2024;13:30;14,17
26.03.2024;13:15;14,23
26.03.2024;13:00;14,17
26.03.2024;12:45;14,17
26.03.2024;12:30;14,14
26.03.2024;12:15;14,17
26.03.2024;12:00;14,17
26.03.2024;11:45;14,20
26.03.2024;11:30;14,17
26.03.2024;11:15;14,17
26.03.2024;11:00;14,76
26.03.2024;10:45;14,70
26.03.2024;10:30;14,76
26.03.2024;10:15;14,64
26.03.2024;10:00;14,67
26.03.2024;09:45;14,42
26.03.2024;09:30;14,76
26.03.2024;09:15;14,70
26.03.2024;09:00;14,73
26.03.2024;08:45;14,39
26.03.2024;08:30;14,20
26.03.2024;08:15;14,01
26.03.2024;08:00;13,55
26.03.2024;07:45;13,08
26.03.2024;07:30;12,80
26.03.2024;07:15;12,61
26.03.2024;07:00;12,55
26.03.2024;06:45;12,52
26.03.2024;06:30;12,49
26.03.2024;06:15;12,49
26.03.2024;06:00;12,49
26.03.2024;05:45;12,49
26.03.2024;05:30;12,49
26.03.2024;05:15;12,49
26.03.2024;05:00;12,52
26.03.2024;04:45;12,52
26.03.2024;04:30;12,52
26.03.2024;04:15;12,52
26.03.2024;04:00;12,55
26.03.2024;03:45;12,55
26.03.2024;03:30;12,55
26.03.2024;03:15;12,55
26.03.2024;03:00;12,55
26.03.2024;02:45;12,55
26.03.2024;02:30;12,55
26.03.2024;02:15;12,55
26.03.2024;02:00;12,55
26.03.2024;01:45;12,55
26.03.2024;01:30;12,55
26.03.2024;01:15;12,55
26.03.2024;01:00;12,58
26.03.2024;00:45;12,58
26.03.2024;00:30;12,58
26.03.2024;00:15;12,58
26.03.2024;00:00;12,61
25.03.2024;23:45;12,61
25.03.2024;23:30;12,61
25.03.2024;23:15;12,61
25.03.2024;23:00;12,67
25.03.2024;22:45;12,67
25.03.2024;22:30;12,71
25.03.2024;22:15;12,74
25.03.2024;22:00;12,80
25.03.2024;21:45;12,86
25.03.2024;21:30;12,89
25.03.2024;21:15;12,92
25.03.2024;21:00;12,99
25.03.2024;20:45;13,05
25.03.2024;20:30;13,08
25.03.2024;20:15;13,14
25.03.2024;20:00;13,20
25.03.2024;19:45;13,27
25.03.2024;19:30;13,33
25.03.2024;19:15;13,42
25.03.2024;19:00;13,48
25.03.2024;18:45;13,61
25.03.2024;18:30;13,70
25.03.2024;18:15;13,80
25.03.2024;18:00;13,92
25.03.2024;17:45;14,01
25.03.2024;17:30;14,04
25.03.2024;17:15;14,08
25.03.2024;17:00;14,04
25.03.2024;16:45;14,11
25.03.2024;16:30;14,14
25.03.2024;16:15;14,14
25.03.2024;16:00;14,17
25.03.2024;15:45;14,17
25.03.2024;15:30;14,14
25.03.2024;15:15;14,14
25.03.2024;15:00;14,14
25.03.2024;14:45;14,14
25.03.2024;14:30;14,17
25.03.2024;14:15;14,17
25.03.2024;14:00;14,14
25.03.2024;13:45;14,14
25.03.2024;13:30;14,17
25.03.2024;13:15;14,17
25.03.2024;13:00;14,14
25.03.2024;12:45;14,14
25.03.2024;12:30;14,26
25.03.2024;12:15;14,76
25.03.2024;12:00;14,76
25.03.2024;11:45;14,76
25.03.2024;11:30;14,76
25.03.2024;11:15;14,79
25.03.2024;11:00;14,79
25.03.2024;10:45;14,79
25.03.2024;10:30;14,82
25.03.2024;10:15;14,23
25.03.2024;10:00;14,29
25.03.2024;09:45;14,23
25.03.2024;09:30;14,17
25.03.2024;09:15;14,26
25.03.2024;09:00;14,23
25.03.2024;08:45;14,14
25.03.2024;08:30;13,83
25.03.2024;08:15;13,42
25.03.2024;08:00;13,11
25.03.2024;07:45;12,89
25.03.2024;07:30;12,71
25.03.2024;07:15;12,58
25.03.2024;07:00;12,55
25.03.2024;06:45;12,49
25.03.2024;06:30;12,49
25.03.2024;06:15;12,46
25.03.2024;06:00;12,49
25.03.2024;05:45;12,49
25.03.2024;05:30;12,49
25.03.2024;05:15;12,49
25.03.2024;05:00;12,49
25.03.2024;04:45;12,52
25.03.2024;04:30;12,49
25.03.2024;04:15;12,49
25.03.2024;04:00;12,52
25.03.2024;03:45;12,52
25.03.2024;03:30;12,52
25.03.2024;03:15;12,52
25.03.2024;03:00;12,55
25.03.2024;02:45;12,55
25.03.2024;02:30;12,55
25.03.2024;02:15;12,55
25.03.2024;02:00;12,55
25.03.2024;01:45;12,55
25.03.2024;01:30;12,55
25.03.2024;01:15;12,55
25.03.2024;01:00;12,55
25.03.2024;00:45;12,55
25.03.2024;00:30;12,55
25.03.2024;00:15;12,55
25.03.2024;00:00;12,58
24.03.2024;23:45;12,58
24.03.2024;23:30;12,58
24.03.2024;23:15;12,58
24.03.2024;23:00;12,61
24.03.2024;22:45;12,61
24.03.2024;22:30;12,64
24.03.2024;22:15;12,67
24.03.2024;22:00;12,71
24.03.2024;21:45;12,74
24.03.2024;21:30;12,77
24.03.2024;21:15;12,80
24.03.2024;21:00;12,86
24.03.2024;20:45;12,92
24.03.2024;20:30;12,95
24.03.2024;20:15;12,99
24.03.2024;20:00;13,05
24.03.2024;19:45;13,11
24.03.2024;19:30;13,14
24.03.2024;19:15;13,20
24.03.2024;19:00;13,30
24.03.2024;18:45;13,36
24.03.2024;18:30;13,48
24.03.2024;18:15;13,55
24.03.2024;18:00;13,64
24.03.2024;17:45;13,73
24.03.2024;17:30;13,80
24.03.2024;17:15;13,83
24.03.2024;17:00;13,89
24.03.2024;16:45;13,95
24.03.2024;16:30;14,01
24.03.2024;16:15;14,04
24.03.2024;16:00;14,08
24.03.2024;15:45;14,08
24.03.2024;15:30;14,14
24.03.2024;15:15;14,14
24.03.2024;15:00;14,14
24.03.2024;14:45;14,17
24.03.2024;14:30;14,20
24.03.2024;14:15;14,20
24.03.2024;14:00;14,26
24.03.2024;13:45;14,23
24.03.2024;13:30;14,23
24.03.2024;13:15;14,20
24.03.2024;13:00;14,20
24.03.2024;12:45;14,26
24.03.2024;12:30;14,23
24.03.2024;12:15;14,20
24.03.2024;12:00;14,23
24.03.2024;11:45;14,26
24.03.2024;11:30;14,20
24.03.2024;11:15;14,20
24.03.2024;11:00;14,23
24.03.2024;10:45;14,20
24.03.2024;10:30;14,20
24.03.2024;10:15;14,23
24.03.2024;10:00;14,17
24.03.2024;09:45;14,17
24.03.2024;09:30;14,14
24.03.2024;09:15;14,01
24.03.2024;09:00;13,58
24.03.2024;08:45;13,30
24.03.2024;08:30;13,17
24.03.2024;08:15;13,05
24.03.2024;08:00;12,89
24.03.2024;07:45;12,74
24.03.2024;07:30;12,64
24.03.2024;07:15;12,55
24.03.2024;07:00;12,55
24.03.2024;06:45;12,49
24.03.2024;06:30;12,46
24.03.2024;06:15;12,46
24.03.2024;06:00;12,49
24.03.2024;05:45;12,49
24.03.2024;05:30;12,49
24.03.2024;05:15;12,49
24.03.2024;05:00;12,52
24.03.2024;04:45;12,52
24.03.2024;04:30;12,52
24.03.2024;04:15;12,52
24.03.2024;04:00;12,55
24.03.2024;03:45;12,55
24.03.2024;03:30;12,55
24.03.2024;03:15;12,52
24.03.2024;03:00;12,55
24.03.2024;02:45;12,55
24.03.2024;02:30;12,55
24.03.2024;02:15;12,55
24.03.2024;02:00;12,64
24.03.2024;01:45;12,55
24.03.2024;01:30;12,55
24.03.2024;01:15;12,55
24.03.2024;01:00;12,58
24.03.2024;00:45;12,58
24.03.2024;00:30;12,58
24.03.2024;00:15;12,58
24.03.2024;00:00;12,58
23.03.2024;23:45;12,58
23.03.2024;23:30;12,61
23.03.2024;23:15;12,61
23.03.2024;23:00;12,61
23.03.2024;22:45;12,64
23.03.2024;22:30;12,67
23.03.2024;22:15;12,67
23.03.2024;22:00;12,71
23.03.2024;21:45;12,74
23.03.2024;21:30;12,77
23.03.2024;21:15;12,80
23.03.2024;21:00;12,86
23.03.2024;20:45;12,92
23.03.2024;20:30;12,95
23.03.2024;20:15;12,99
23.03.2024;20:00;13,08
23.03.2024;19:45;13,11
23.03.2024;19:30;13,17
23.03.2024;19:15;13,24
23.03.2024;19:00;13,33
23.03.2024;18:45;13,42
23.03.2024;18:30;13,48
23.03.2024;18:15;13,58
23.03.2024;18:00;13,70
23.03.2024;17:45;13,76
23.03.2024;17:30;13,83
23.03.2024;17:15;13,89
23.03.2024;17:00;13,95
23.03.2024;16:45;14,01
23.03.2024;16:30;14,01
23.03.2024;16:15;14,04
23.03.2024;16:00;14,11
23.03.2024;15:45;14,17
23.03.2024;15:30;14,17
23.03.2024;15:15;14,14
23.03.2024;15:00;14,14
23.03.2024;14:45;14,14
23.03.2024;14:30;14,14
23.03.2024;14:15;14,17
23.03.2024;14:00;14,17
23.03.2024;13:45;14,17
23.03.2024;13:30;14,17
23.03.2024;13:15;14,17
23.03.2024;13:00;14,20
23.03.2024;12:45;14,17
23.03.2024;12:30;14,14
23.03.2024;12:15;14,14
23.03.2024;12:00;14,14
23.03.2024;11:45;14,17
23.03.2024;11:30;14,20
23.03.2024;11:15;14,23
23.03.2024;11:00;14,26
23.03.2024;10:45;14,26
23.03.2024;10:30;14,20
23.03.2024;10:15;14,23
23.03.2024;10:00;14,26
23.03.2024;09:45;14,14
23.03.2024;09:30;14,14
23.03.2024;09:15;14,08
23.03.2024;09:00;13,89
23.03.2024;08:45;13,58
23.03.2024;08:30;13,24
23.03.2024;08:15;12,95
23.03.2024;08:00;12,80
23.03.2024;07:45;12,67
23.03.2024;07:30;12,55
23.03.2024;07:15;12,49
23.03.2024;07:00;12,49
23.03.2024;06:45;12,49
23.03.2024;06:30;12,49
23.03.2024;06:15;12,49
23.03.2024;06:00;12,49
23.03.2024;05:45;12,49
23.03.2024;05:30;12,49
23.03.2024;05:15;12,49
23.03.2024;05:00;12,49
23.03.2024;04:45;12,49
23.03.2024;04:30;12,49
23.03.2024;04:15;12,49
23.03.2024;04:00;12,52
23.03.2024;03:45;12,52
23.03.2024;03:30;12,52
23.03.2024;03:15;12,49
23.03.2024;03:00;12,55
23.03.2024;02:45;12,55
23.03.2024;02:30;12,55
23.03.2024;02:15;12,52
23.03.2024;02:00;12,55
23.03.2024;01:45;12,55
23.03.2024;01:30;12,55
23.03.2024;01:15;12,55
23.03.2024;01:00;12,55
23.03.2024;00:45;12,55
23.03.2024;00:30;12,55
23.03.2024;00:15;12,55
23.03.2024;00:00;12,58
22.03.2024;23:45;12,58
22.03.2024;23:30;12,58
22.03.2024;23:15;12,58
22.03.2024;23:00;12,58
22.03.2024;22:45;12,61
22.03.2024;22:30;12,61
22.03.2024;22:15;12,61
22.03.2024;22:00;12,64
22.03.2024;21:45;12,67
22.03.2024;21:30;12,67
22.03.2024;21:15;12,71
22.03.2024;21:00;12,77
22.03.2024;20:45;12,80
22.03.2024;20:30;12,83
22.03.2024;20:15;12,86
22.03.2024;20:00;12,92
22.03.2024;19:45;12,95
22.03.2024;19:30;13,02
22.03.2024;19:15;13,08
22.03.2024;19:00;13,14
22.03.2024;18:45;13,20
22.03.2024;18:30;13,30
22.03.2024;18:15;13,39
22.03.2024;18:00;13,52
22.03.2024;17:45;13,58
22.03.2024;17:30;13,67
22.03.2024;17:15;13,70
22.03.2024;17:00;13,80
22.03.2024;16:45;13,83
22.03.2024;16:30;13,89
22.03.2024;16:15;13,89
22.03.2024;16:00;13,95
22.03.2024;15:45;13,95
22.03.2024;15:30;14,01
22.03.2024;15:15;14,04
22.03.2024;15:00;14,04
22.03.2024;14:45;14,04
22.03.2024;14:30;14,04
22.03.2024;14:15;14,08
22.03.2024;14:00;14,08
22.03.2024;13:45;14,04
22.03.2024;13:30;14,04
22.03.2024;13:15;13,98
22.03.2024;13:00;13,98
22.03.2024;12:45;14,04
22.03.2024;12:30;14,11
22.03.2024;12:15;14,17
22.03.2024;12:00;14,14
22.03.2024;11:45;14,14
22.03.2024;11:30;14,14
22.03.2024;11:15;14,14
22.03.2024;11:00;14,14
22.03.2024;10:45;14,11
22.03.2024;10:30;14,08
22.03.2024;10:15;13,86
22.03.2024;10:00;13,73
22.03.2024;09:45;13,67
22.03.2024;09:30;13,55
22.03.2024;09:15;13,48
22.03.2024;09:00;13,30
22.03.2024;08:45;13,08
22.03.2024;08:30;12,86
22.03.2024;08:15;12,74
22.03.2024;08:00;12,67
22.03.2024;07:45;12,61
22.03.2024;07:30;12,55
22.03.2024;07:15;12,49
22.03.2024;07:00;12,49
22.03.2024;06:45;12,49
22.03.2024;06:30;12,49
22.03.2024;06:15;12,49
22.03.2024;06:00;12,49
22.03.2024;05:45;12,49
22.03.2024;05:30;12,49
22.03.2024;05:15;12,49
22.03.2024;05:00;12,49
22.03.2024;04:45;12,49
22.03.2024;04:30;12,49
22.03.2024;04:15;12,49
22.03.2024;04:00;12,52
22.03.2024;03:45;12,52
22.03.2024;03:30;12,52
22.03.2024;03:15;12,52
22.03.2024;03:00;12,55
22.03.2024;02:45;12,55
22.03.2024;02:30;12,55
22.03.2024;02:15;12,55
22.03.2024;02:00;12,55
22.03.2024;01:45;12,55
22.03.2024;01:30;12,55
22.03.2024;01:15;12,55
22.03.2024;01:00;12,55
22.03.2024;00:45;12,55
22.03.2024;00:30;12,55
22.03.2024;00:15;12,55
22.03.2024;00:00;12,58
21.03.2024;23:45;12,58
21.03.2024;23:30;12,58
21.03.2024;23:15;12,58
21.03.2024;23:00;12,61
21.03.2024;22:45;12,61
21.03.2024;22:30;12,61
21.03.2024;22:15;12,64
21.03.2024;22:00;12,67
21.03.2024;21:45;12,71
21.03.2024;21:30;12,74
21.03.2024;21:15;12,77
21.03.2024;21:00;12,83
21.03.2024;20:45;12,86
21.03.2024;20:30;12,92
21.03.2024;20:15;12,95
21.03.2024;20:00;13,02
21.03.2024;19:45;13,05
21.03.2024;19:30;13,11
21.03.2024;19:15;13,17
21.03.2024;19:00;13,24
21.03.2024;18:45;13,30
21.03.2024;18:30;13,39
21.03.2024;18:15;13,48
21.03.2024;18:00;13,58
21.03.2024;17:45;13,67
21.03.2024;17:30;13,76
21.03.2024;17:15;13,76
21.03.2024;17:00;13,80
21.03.2024;16:45;13,86
21.03.2024;16:30;13,89
21.03.2024;16:15;13,95
21.03.2024;16:00;14,01
21.03.2024;15:45;14,08
21.03.2024;15:30;14,08
21.03.2024;15:15;14,14
21.03.2024;15:00;14,14
21.03.2024;14:45;14,20
21.03.2024;14:30;14,14
21.03.2024;14:15;14,14
21.03.2024;14:00;14,17
21.03.2024;13:45;14,17
21.03.2024;13:30;14,17
21.03.2024;13:15;14,17
21.03.2024;13:00;14,14
21.03.2024;12:45;14,14
21.03.2024;12:30;14,14
21.03.2024;12:15;14,20
21.03.2024;12:00;14,20
21.03.2024;11:45;14,20
21.03.2024;11:30;14,17
21.03.2024;11:15;14,20
21.03.2024;11:00;14,17
21.03.2024;10:45;14,14
21.03.2024;10:30;14,14
21.03.2024;10:15;14,08
21.03.2024;10:00;14,01
21.03.2024;09:45;13,95
21.03.2024;09:30;13,83
21.03.2024;09:15;13,58
21.03.2024;09:00;13,36
21.03.2024;08:45;13,08
21.03.2024;08:30;12,92
21.03.2024;08:15;12,83
21.03.2024;08:00;12,71
21.03.2024;07:45;12,61
21.03.2024;07:30;12,55
21.03.2024;07:15;12,49
21.03.2024;07:00;12,49
21.03.2024;06:45;12,49
21.03.2024;06:30;12,49
21.03.2024;06:15;12,49
21.03.2024;06:00;12,52
21.03.2024;05:45;12,52
21.03.2024;05:30;12,52
21.03.2024;05:15;12,52
21.03.2024;05:00;12,55
21.03.2024;04:45;12,55
21.03.2024;04:30;12,55
21.03.2024;04:15;12,52
21.03.2024;04:00;12,55
21.03.2024;03:45;12,55
21.03.2024;03:30;12,55
21.03.2024;03:15;12,55
21.03.2024;03:00;12,55
21.03.2024;02:45;12,55
21.03.2024;02:30;12,55
21.03.2024;02:15;12,55
21.03.2024;02:00;12,55
21.03.2024;01:45;12,55
21.03.2024;01:30;12,55
21.03.2024;01:15;12,55
21.03.2024;01:00;12,58
21.03.2024;00:45;12,58
21.03.2024;00:30;12,58
21.03.2024;00:15;12,58
21.03.2024;00:00;12,61
20.03.2024;23:45;12,61
20.03.2024;23:30;12,61
20.03.2024;23:15;12,61
20.03.2024;23:00;12,67
20.03.2024;22:45;12,67
20.03.2024;22:30;12,71
20.03.2024;22:15;12,74
20.03.2024;22:00;12,80
20.03.2024;21:45;12,83
20.03.2024;21:30;12,86
20.03.2024;21:15;12,92
20.03.2024;21:00;12,95
20.03.2024;20:45;13,02
20.03.2024;20:30;13,05
20.03.2024;20:15;13,11
20.03.2024;20:00;13,17
20.03.2024;19:45;13,24
20.03.2024;19:30;13,30
20.03.2024;19:15;13,36
20.03.2024;19:00;13,45
20.03.2024;18:45;13,55
20.03.2024;18:30;13,64
20.03.2024;18:15;13,80
20.03.2024;18:00;13,95
20.03.2024;17:45;14,14
20.03.2024;17:30;14,08
20.03.2024;17:15;14,14
20.03.2024;17:00;14,11
20.03.2024;16:45;14,11
20.03.2024;16:30;14,11
20.03.2024;16:15;14,08
20.03.2024;16:00;14,11
20.03.2024;15:45;14,11
20.03.2024;15:30;14,08
20.03.2024;15:15;14,08
20.03.2024;15:00;14,11
20.03.2024;14:45;14,14
20.03.2024;14:30;14,20
20.03.2024;14:15;14,11
20.03.2024;14:00;14,14
20.03.2024;13:45;14,14
20.03.2024;13:30;14,11
20.03.2024;13:15;14,20
20.03.2024;13:00;14,14
20.03.2024;12:45;14,11
20.03.2024;12:30;14,14
20.03.2024;12:15;14,17
20.03.2024;12:00;14,76
20.03.2024;11:45;14,76
20.03.2024;11:30;14,57
20.03.2024;11:15;14,73
20.03.2024;11:00;14,73
20.03.2024;10:45;14,73
20.03.2024;10:30;14,76
20.03.2024;10:15;14,26
20.03.2024;10:00;14,32
20.03.2024;09:45;14,20
20.03.2024;09:30;14,14
20.03.2024;09:15;13,89
20.03.2024;09:00;13,61
20.03.2024;08:45;13,30
20.03.2024;08:30;13,05
20.03.2024;08:15;12,86
20.03.2024;08:00;12,71
20.03.2024;07:45;12,61
20.03.2024;07:30;12,55
20.03.2024;07:15;12,49
20.03.2024;07:00;12,49
20.03.2024;06:45;12,49
20.03.2024;06:30;12,49
20.03.2024;06:15;12,49
20.03.2024;06:00;12,49
20.03.2024;05:45;12,49
20.03.2024;05:30;12,49
20.03.2024;05:15;12,49
20.03.2024;05:00;12,49
20.03.2024;04:45;12,49
20.03.2024;04:30;12,49
20.03.2024;04:15;12,49
20.03.2024;04:00;12,52
20.03.2024;03:45;12,52
20.03.2024;03:30;12,52
20.03.2024;03:15;12,52
20.03.2024;03:00;12,55
20.03.2024;02:45;12,55
20.03.2024;02:30;12,55
20.03.2024;02:15;12,55
20.03.2024;02:00;12,55
20.03.2024;01:45;12,55
20.03.2024;01:30;12,55
20.03.2024;01:15;12,55
20.03.2024;01:00;12,55
20.03.2024;00:45;12,55
20.03.2024;00:30;12,55
20.03.2024;00:15;12,55
20.03.2024;00:00;12,58
19.03.2024;23:45;12,58
19.03.2024;23:30;12,58
19.03.2024;23:15;12,61
19.03.2024;23:00;12,61
19.03.2024;22:45;12,64
19.03.2024;22:30;12,67
19.03.2024;22:15;12,67
19.03.2024;22:00;12,74
19.03.2024;21:45;12,86
19.03.2024;21:30;12,80
19.03.2024;21:15;12,83
19.03.2024;21:00;12,89
19.03.2024;20:45;12,92
19.03.2024;20:30;12,95
19.03.2024;20:15;13,02
19.03.2024;20:00;13,08
19.03.2024;19:45;13,11
19.03.2024;19:30;13,17
19.03.2024;19:15;13,24
19.03.2024;19:00;13,33
19.03.2024;18:45;13,42
19.03.2024;18:30;13,52
19.03.2024;18:15;13,61
19.03.2024;18:00;13,73
19.03.2024;17:45;13,83
19.03.2024;17:30;13,92
19.03.2024;17:15;14,01
19.03.2024;17:00;14,01
19.03.2024;16:45;14,08
19.03.2024;16:30;14,11
19.03.2024;16:15;14,14
19.03.2024;16:00;14,11
19.03.2024;15:45;14,14
19.03.2024;15:30;14,14
19.03.2024;15:15;14,14
19.03.2024;15:00;14,11
19.03.2024;14:45;14,14
19.03.2024;14:30;14,11
19.03.2024;14:15;14,14
19.03.2024;14:00;14,14
19.03.2024;13:45;14,73
19.03.2024;13:30;14,82
19.03.2024;13:15;14,73
19.03.2024;13:00;14,73
19.03.2024;12:45;14,76
19.03.2024;12:30;14,70
19.03.2024;12:15;14,76
19.03.2024;12:00;14,76
19.03.2024;11:45;14,70
19.03.2024;11:30;14,67
19.03.2024;11:15;14,60
19.03.2024;11:00;14,54
19.03.2024;10:45;14,57
19.03.2024;10:30;14,32
19.03.2024;10:15;14,20
19.03.2024;10:00;14,26
19.03.2024;09:45;14,29
19.03.2024;09:30;14,26
19.03.2024;09:15;14,23
19.03.2024;09:00;14,23
19.03.2024;08:45;14,14
19.03.2024;08:30;13,92
19.03.2024;08:15;13,55
19.03.2024;08:00;13,17
19.03.2024;07:45;12,86
19.03.2024;07:30;12,67
19.03.2024;07:15;12,55
19.03.2024;07:00;12,49
19.03.2024;06:45;12,49
19.03.2024;06:30;12,49
19.03.2024;06:15;12,49
19.03.2024;06:00;12,49
19.03.2024;05:45;12,49
19.03.2024;05:30;12,49
19.03.2024;05:15;12,49
19.03.2024;05:00;12,49
19.03.2024;04:45;12,52
19.03.2024;04:30;12,52
19.03.2024;04:15;12,49
19.03.2024;04:00;12,55
19.03.2024;03:45;12,55
19.03.2024;03:30;12,55
19.03.2024;03:15;12,55
19.03.2024;03:00;12,55
19.03.2024;02:45;12,55
19.03.2024;02:30;12,55
19.03.2024;02:15;12,55
19.03.2024;02:00;12,55
19.03.2024;01:45;12,55
19.03.2024;01:30;12,55
19.03.2024;01:15;12,55
19.03.2024;01:00;12,58
19.03.2024;00:45;12,58
19.03.2024;00:30;12,58
19.03.2024;00:15;12,58
19.03.2024;00:00;12,61
18.03.2024;23:45;12,61
18.03.2024;23:30;12,61
18.03.2024;23:15;12,61
18.03.2024;23:00;12,67
18.03.2024;22:45;12,71
18.03.2024;22:30;12,71
18.03.2024;22:15;12,74
18.03.2024;22:00;12,80
18.03.2024;21:45;12,86
18.03.2024;21:30;12,86
18.03.2024;21:15;12,92
18.03.2024;21:00;12,99
18.03.2024;20:45;13,05
18.03.2024;20:30;13,08
18.03.2024;20:15;13,11
18.03.2024;20:00;13,20
18.03.2024;19:45;13,27
18.03.2024;19:30;13,33
18.03.2024;19:15;13,39